Location: ?????
(42.2640°N, 43.4211°E)
Time: 15:22:32
(UTC+00:00)

NOSS 3-1 (A) - Pass Details

Date: 07 August 2020
Orbit: 747 x 1465 km, 63.4° (Epoch: 17 September)

Event Time Altitude Azimuth Distance (km) Brightness Sun altitude
Exits shadow 01:12:45 12° 238° (WSW) 2,243 4.7 -9.5°
Maximum altitude 01:17:40 51° 313° (NW) 1,097 3.7 -8.7°
Drops below altitude 10° 01:23:49 10° 29° (NNE) 2,760 6.9 -7.7°
Sets 01:26:45 0° 34° (NE) 3,830 7.9 -7.2°
